Hourly Data Report for July 15, 2003

TORONTO CITY
ONTARIO

43°40'00.000" N
79°24'00.000" W
112.50 m
6158355
71508
XTO

Download Data

Hourly Data (July 2003)
Hourly Data Report for July 15, 2003
TIME
LST
Temp Definition
°C
Dew Point Definition
°C
Rel Hum Definition
%
Precip. Amount Definition
mm

Wind Dir Definition
10's deg

Wind Spd Definition
km/h
Visibility Definition
km
Stn Press Definition
kPa
Hmdx Definition


Wind Chill Definition


Weather Definition


00:00 19.4 14.7 74   LegendMM LegendMM LegendMM 100.47     LegendNANA
01:00 20.4 15.0 71   LegendMM LegendMM LegendMM 100.37     LegendNANA
02:00 19.3 14.8 75   LegendMM LegendMM LegendMM 100.39     LegendNANA
03:00 18.4 14.8 80   LegendMM LegendMM LegendMM 100.35     LegendNANA
04:00 17.8 14.6 82   LegendMM LegendMM LegendMM 100.30     LegendNANA
05:00 18.6 14.2 76   LegendMM LegendMM LegendMM 100.31     LegendNANA
06:00 18.8 14.5 76   LegendMM LegendMM LegendMM 100.26     LegendNANA
07:00 20.4 15.8 75   LegendMM LegendMM LegendMM 100.23 25   LegendNANA
08:00 21.8 17.6 77   LegendMM LegendMM LegendMM 100.23 28   LegendNANA
09:00 23.1 18.1 73   LegendMM LegendMM LegendMM 100.14 29   LegendNANA
10:00 24.6 19.0 71   LegendMM LegendMM LegendMM 100.10 31   LegendNANA
11:00 23.3 18.2 73   LegendMM LegendMM LegendMM 100.00 29   LegendNANA
12:00 24.0 18.3 70   LegendMM LegendMM LegendMM 99.94 30   LegendNANA
13:00 24.3 18.4 70   LegendMM LegendMM LegendMM 99.85 31   LegendNANA
14:00 24.5 15.4 57   LegendMM LegendMM LegendMM 99.79 29   LegendNANA
15:00 23.6 15.6 61   LegendMM LegendMM LegendMM 99.63 28   LegendNANA
16:00 24.5 15.6 58   LegendMM LegendMM LegendMM 99.44 29   LegendNANA
17:00 22.3 18.2 78   LegendMM LegendMM LegendMM 99.46 28   LegendNANA
18:00 20.8 19.0 89   LegendMM LegendMM LegendMM 99.36 28   LegendNANA
19:00 21.1 20.5 96   LegendMM LegendMM LegendMM 99.38 29   LegendNANA
20:00 20.7 20.3 98   LegendMM LegendMM LegendMM 99.37 29   LegendNANA
21:00 19.4 19.0 98   LegendMM LegendMM LegendMM 99.40     LegendNANA
22:00 19.1 18.8 98   LegendMM LegendMM LegendMM 99.40     LegendNANA
23:00 19.2 18.9 98   LegendMM LegendMM LegendMM 99.40     LegendNANA

Notes on Data Quality.

Legend

  • E = Estimated
  • M = Missing
  • NA = Not Available*
  • [empty] = Indicates an unobserved value
Date modified: